Lubbock, TX

11:30 AM CDT on August 17, 2017 (GMT -0500)
Lubbock International

Weather History for KLBB - June, 2013

Change the Weather History Date:

Wednesday, June 26, 2013

  Actual Average Record
Temperature  
Mean Temperature 92 °F 79 °F  
Max Temperature 107 °F 92 °F 112 °F (2011)
Min Temperature 76 °F 66 °F 53 °F (1958)
Degree Days  
Heating Degree Days 0 0  
Month to date heating degree days 0 0  
Since 1 June heating degree days 0 0  
Since 1 July heating degree days 3208 3377  
Cooling Degree Days 27 14  
Month to date cooling degree days 395 317  
Year to date cooling degree days 710 563  
Since 1 June cooling degree days 395 317  
Growing Degree Days 41 (Base 50)    
Moisture  
Dew Point 55 °F    
Average Humidity 39    
Maximum Humidity 69    
Minimum Humidity 8    
Precipitation  
Precipitation 0.00 in 0.08 in 1.23 in (2003)
Month to date precipitation 1.15 2.69  
Year to date precipitation 4.57 8.90  
Snow  
Snow 0.00 in 0.00 in 0.00 in (2002)
Month to date snowfall 0.0 0.0  
Since 1 June snowfall 0.0 0.0  
Since 1 July snowfall 4.1 8.2  
Snow Depth 0.00 in    
Sea Level Pressure  
Sea Level Pressure 29.74 in    
Wind  
Wind Speed 12 mph (SSW)    
Max Wind Speed 22 mph    
Max Gust Speed 26 mph    
Visibility 10 miles    
Events      
T = Trace of Precipitation, MM = Missing Value Source: NWS Daily Summary

Daily Weather History Graph

Daily Weather History Graph

Search for Another Location

Airport or City:

Trip Planner

Search our weather history database for the weather conditions in past years. The results will help you decide how hot, cold, wet, or windy it might be!

Date:

Astronomy

Jun. 26, 2013 Rise Set
Actual Time 6:38 AM CDT 9:01 PM CDT
Civil Twilight 6:09 AM CDT 9:30 PM CDT
Nautical Twilight 5:34 AM CDT 10:06 PM CDT
Astronomical Twilight 4:55 AM CDT 10:45 PM CDT
Moon 11:39 PM CDT (6/26) 10:21 AM CDT (6/26)
Length of Visible Light 15h 20m
Length of Day
14h 22m
Waning Gibbous, 85% of the Moon is Illuminated
Jun 26
Waning Gibbous
Jun 29
Last Quarter
Jul 8
New
Jul 15
First Quarter
Jul 22
Full

Hourly Weather History & Observations

Time (CDT) Temp. Heat Index Dew Point Humidity Pressure Visibility Wind Dir Wind Speed Gust Speed Precip Events Conditions
12:53 AM 82.0 °F 83.0 °F 62.1 °F 51% 29.73 in 10.0 mi South 18.4 mph 26.5 mph N/A   Scattered Clouds
1:53 AM 80.1 °F 81.7 °F 64.0 °F 58% 29.73 in 10.0 mi South 16.1 mph - N/A   Partly Cloudy
2:53 AM 79.0 °F - 64.9 °F 62% 29.74 in 10.0 mi South 20.7 mph - N/A   Mostly Cloudy
3:53 AM 78.1 °F - 64.9 °F 64% 29.72 in 10.0 mi South 16.1 mph 26.5 mph N/A   Mostly Cloudy
4:53 AM 77.0 °F - 64.9 °F 66% 29.73 in 10.0 mi SSW 12.7 mph 20.7 mph N/A   Mostly Cloudy
5:53 AM 77.0 °F - 64.0 °F 64% 29.73 in 10.0 mi SSW 15.0 mph 21.9 mph N/A   Scattered Clouds
6:53 AM 75.2 °F - 64.4 °F 69% 29.75 in 10.0 mi SSW 10.4 mph - N/A   Scattered Clouds
7:53 AM 77.0 °F - 64.0 °F 64% 29.76 in 10.0 mi SW 13.8 mph - N/A   Scattered Clouds
8:53 AM 81.0 °F 82.2 °F 63.0 °F 54% 29.78 in 10.0 mi SW 17.3 mph - N/A   Scattered Clouds
9:53 AM 84.0 °F 84.9 °F 63.0 °F 49% 29.78 in 10.0 mi SW 11.5 mph - N/A   Scattered Clouds
10:53 AM 89.1 °F 90.0 °F 63.0 °F 42% 29.78 in 10.0 mi SW 10.4 mph - N/A   Scattered Clouds
11:53 AM 95.0 °F 94.0 °F 57.9 °F 29% 29.78 in 10.0 mi SSW 10.4 mph - N/A   Scattered Clouds
12:53 PM 99.0 °F - 50.0 °F 19% 29.77 in 10.0 mi WSW 5.8 mph - N/A   Scattered Clouds
1:53 PM 102.9 °F - 48.0 °F 16% 29.75 in 10.0 mi SSW 8.1 mph - N/A   Scattered Clouds
2:53 PM 105.1 °F - 41.0 °F 11% 29.74 in 10.0 mi South 5.8 mph - N/A   Scattered Clouds
3:53 PM 107.1 °F - 39.9 °F 10% 29.72 in 10.0 mi South 11.5 mph 20.7 mph N/A   Partly Cloudy
4:53 PM 106.0 °F - 32.0 °F 8% 29.71 in 10.0 mi Calm Calm - N/A   Partly Cloudy
5:53 PM 105.1 °F - 37.0 °F 10% 29.70 in 10.0 mi SSW 9.2 mph - N/A   Scattered Clouds
6:53 PM 105.1 °F - 43.0 °F 12% 29.69 in 10.0 mi SSE 15.0 mph 20.7 mph N/A   Scattered Clouds
7:53 PM 102.0 °F - 50.0 °F 17% 29.70 in 10.0 mi SSE 16.1 mph - N/A   Partly Cloudy
8:53 PM 96.8 °F - 44.6 °F 17% 29.73 in 10.0 mi SSE 13.8 mph - N/A   Scattered Clouds
9:53 PM 91.4 °F - 46.4 °F 21% 29.75 in 10.0 mi SSE 12.7 mph - N/A   Partly Cloudy
10:53 PM 91.0 °F 90.9 °F 61.0 °F 36% 29.76 in 10.0 mi SSE 16.1 mph - N/A   Clear
11:53 PM 88.0 °F 87.9 °F 61.0 °F 40% 29.78 in 10.0 mi SSE 13.8 mph - N/A   Clear